Skip Page Navigation
NASA JPL Caltech
NASA Logo - Jet Propulsion Laboratory + View the NASA Portal
+ Center for Near-Earth Object Studies
JPL Home Earth Solar System Stars & Galaxies Technology
JPL Solar System Dynamics
BODIES ORBITS EPHEMERIDES TOOLS PHYSICAL DATA DISCOVERY FAQ SITE MAP
JPL Small-Body Database Browser
Search: [ help ]  
413029 (2000 UB109)
Classification: Main-belt Asteroid          SPK-ID: 2413029
Ephemeris | Orbit Diagram | Orbital Elements | Mission Design | Physical Parameters | Discovery Circumstances | Close-Approach Data ]

[ show orbit diagram ]
Orbital Elements at Epoch 2459000.5 (2020-May-31.0) TDB
Reference: JPL 17 (heliocentric ecliptic J2000)
 Element Value Uncertainty (1-sigma)   Units 
e .2733825405473203 7.6011e-08  
a 2.79589784394211 2.8462e-08 au
q 2.031548188254441 2.1086e-07 au
i 11.43635266711784 1.0235e-05 deg
node 196.2404416052145 2.9458e-05 deg
peri 238.0228663543363 3.5713e-05 deg
M 48.90867037481851 1.6873e-05 deg
tp 2458768.512955963521
(2019-Oct-12.01295596)
7.8559e-05 TDB
period 1707.577311202711
4.68
2.6075e-05
7.139e-08
d
yr
n .2108250078272816 3.2193e-09 deg/d
Q 3.560247499629779 3.6243e-08 au
  Orbit Determination Parameters
   # obs. used (total)      180  
   data-arc span      8862 days (24.26 yr)  
   first obs. used      1995-10-20  
   last obs. used      2020-01-24  
   planetary ephem.      DE431  
   SB-pert. ephem.      SB431-N16  
   condition code      0  
   norm. resid. RMS      .60926  
   source      ORB  
   producer      Otto Matic  
   solution date      2020-Feb-26 06:57:33  

Additional Information
 Earth MOID = 1.07132 au 
 Jupiter MOID = 1.89063 au 
 T_jup = 3.243 
[ hide covariance matrix ]
Orbital Elements at Epoch 2457180.5 (2015-Jun-07.0) TDB
Reference: JPL 17 (heliocentric ecliptic J2000)
 Element Value Uncertainty (1-sigma)   Units 
e .2713047153919581 7.5609e-08  
q 2.038799968280414 2.0888e-07 au
tp 2457061.656325383769
(2015-Feb-08.15632538)
7.4e-05 TDB
node 196.2745155356596 2.9479e-05 deg
peri 238.2915443506905 3.5835e-05 deg
i 11.42473245382451 1.0226e-05 deg
  Orbit Determination Parameters
   # obs. used (total)      180  
   data-arc span      8862 days (24.26 yr)  
   first obs. used      1995-10-20  
   last obs. used      2020-01-24  
   planetary ephem.      DE431  
   SB-pert. ephem.      SB431-N16  
   condition code      0  
   norm. resid. RMS      .60926  
   source      ORB  
   producer      Otto Matic  
   solution date      2020-Feb-26 06:57:33  

Additional Information
 Jupiter MOID = 1.89063 au 
 T_jup = 3.243 
Orbit Covariance (6×6)
  e q tp node peri i
e 5.716650493566236E-15 -1.571710836852901E-14 -3.304270576321113E-12 5.887118959201588E-14 -8.20533882288467E-13 -4.500408890934198E-14
q -1.571710836852901E-14 4.363213145796399E-14 9.262711973421431E-12 -1.609660206373007E-13 2.302429919385586E-12 1.238540069415232E-13
tp -3.304270576321113E-12 9.262711973421431E-12 5.475988043515242E-9 -4.759623692697519E-11 1.528063870243172E-9 4.450276913022334E-11
node 5.887118959201588E-14 -1.609660206373007E-13 -4.759623692697519E-11 8.690312870825554E-10 -8.621882662922361E-10 1.044812281374296E-10
peri -8.20533882288467E-13 2.302429919385586E-12 1.528063870243172E-9 -8.621882662922361E-10 1.284142484635949E-9 -9.127907793942287E-11
i -4.500408890934198E-14 1.238540069415232E-13 4.450276913022334E-11 1.044812281374296E-10 -9.127907793942287E-11 1.045642496137202E-10

Ephemeris | Orbit Diagram | Orbital Elements | Mission Design | Physical Parameters | Discovery Circumstances | Close-Approach Data ]

Physical Parameter Table
Parameter Symbol Value Units Sigma Reference Notes
absolute magnitude H 16.8   n/a MPO455939  

413029 (2000 UB109)          Discovered 2000-Oct-31 by LINEAR at Socorro
Reference: Last Updated: 2014-11-10

[ show close-approach data ]
Alternate Designations
 2000 UB109 = 2014 TY7 
Ephemeris | Orbit Diagram | Orbital Elements | Mission Design | Physical Parameters | Discovery Circumstances | Close-Approach Data ]
ABOUT SSD CREDITS/AWARDS PRIVACY/COPYRIGHT GLOSSARY LINKS
FirstGov 2020-Aug-11 20:26 UT
(server date/time)  
NASA Home Page
Site Manager:   Ryan S. Park
Webmaster  Alan B. Chamberlin